Zurück zum Katalog

STARLINK-5939

AktivKommunikationVLEO
NORAD 56015·PAYLOAD·🇺🇸 United States

Gestartet Mar 24, 2023 von Cape Canaveral Space Force Station

Loading…

Nächste Überflüge (nächste 24 Stunden)

TLE

AktuellSource: CelesTrak SupGP

Epoche: Sep 14, 2026, 20:35 UTC

1 56015C 23042AF  26257.85812500  .00053500  00000+0  19377-2 0  2577
2 56015  43.0030  56.6560 0001444 271.4157 294.5748 15.27552431    12

Verfolge STARLINK-5939 in Echtzeit mit AllMySat

Download on the App Store